Regional Weather Roundup
Issued by NWS Upton, NY

Current Version | Previous Version | Text Only | Print | Product List | Glossary On
Versions: 1 2 3 4 5 6 7 8 9 10 11 12 13 14 15 16 17 18 19 20 21 22 23 24 25 26 27 28 29 30 31 32 33 34 35 36 37 38 39 40 41 42 43 44 45 46 47 48 49 50
000
ASUS41 KOKX 021608
RWROKX

REGIONAL WEATHER ROUNDUP
NATIONAL WEATHER SERVICE NEW YORK NY
1200 PM EDT SAT MAY 02 2015

NOTE: "FAIR" INDICATES FEW OR NO CLOUDS BELOW 12,000 FEET WITH NO
SIGNIFICANT WEATHER AND/OR OBSTRUCTIONS TO VISIBILITY.

NYZ071-072-176-178-NJZ106-104-021700-
NEW YORK CITY METRO AREA


CITY           SKY/WX    TMP DP  RH WIND       PRES   REMARKS
CENTRAL PARK   SUNNY     66  40  38 CALM      30.01S
LAGUARDIA APRT MOSUNNY   62  42  47 E6        29.98F
KENNEDY INTL   MOSUNNY   58  43  57 S7        30.01S
NEWARK/LIBERTY MOSUNNY   64  41  42 E5        29.98F
BRNX BOT. GARD   N/A     64  43  45 S8        30.00S
TETERBORO      SUNNY     66  42  41 CALM      29.97F
$$

NYZ177-179-078>081-021700-
LONG ISLAND NEW YORK

CITY           SKY/WX    TMP DP  RH WIND       PRES   REMARKS
FARMINGDALE    SUNNY     61  46  57 SE6       29.99S
ISLIP          MOSUNNY   59  44  57 SE14      29.98S
SHIRLEY        SUNNY     53  42  66 SE14      30.01R
WESTHAMPTON    SUNNY     51  40  65 SE13      30.02R
MONTAUK POINT    N/A     52  41  66 VRB5      30.03S
$$

NYZ052-065-067-021700-
HUDSON VALLEY

CITY           SKY/WX    TMP DP  RH WIND       PRES   REMARKS
WHITE PLAINS   MOSUNNY   61  45  55 SE10      29.97S
NEWBURGH       MOSUNNY   64  45  48 CALM      29.98S
MONTGOMERY     SUNNY     69  43  38 NE12      29.96F
POUGHKEEPSIE   SUNNY     68  43  40 NW9       29.95F
ALBANY         MOSUNNY   66  40  38 CALM      29.97F
$$

NJZ001-105-106-008-010-013-015-019>022-104-021700-
NEW JERSEY

CITY           SKY/WX    TMP DP  RH WIND       PRES   REMARKS
NEWARK/LIBERTY MOSUNNY   64  41  42 E5        29.98F
TETERBORO      SUNNY     66  42  41 CALM      29.97F
CALDWELL       SUNNY     65  44  46 VRB3      29.98F
MORRISTOWN     MOSUNNY   68  43  40 E3        29.98S
SOMERVILLE     MOSUNNY   69  42  37 N9        29.96F
SUSSEX         SUNNY     68  43  40 N6        29.98S
ANDOVER          N/A     67  42  40 N9        29.97F
TRENTON        SUNNY     66  43  43 VRB3      29.99S
MILLVILLE      SUNNY     64  44  48 VRB6      30.00F
ATLANTIC CITY  SUNNY     65  42  43 N5        29.99F
WRIGHTSTOWN    SUNNY     64  43  45 VRB3      29.97F
TOMS RIVER     SUNNY     64  43  45 NE5       30.00S
BELMAR         SUNNY     61  43  51 E6        30.00S
$$

PAZ047>061-062-071-021700-
EASTERN PENNSYLVANIA

CITY           SKY/WX    TMP DP  RH WIND       PRES   REMARKS
PHILADELPHIA   MOSUNNY   65  45  48 SE7       30.00F
ALLENTOWN      SUNNY     70  45  40 CALM      29.97F
SCRANTON       MOSUNNY   66  42  41 W5        29.99F
$$

CTZ002-004>006-009-010-012-RIZ004-006-007-MAZ004-011-015-021700-
SOUTHERN NEW ENGLAND
 IN CT

CITY           SKY/WX    TMP DP  RH WIND       PRES   REMARKS
BRADLEY INTL   MOSUNNY   65  42  43 N3        29.96F
HARTFORD       SUNNY     62  43  49 VRB7      29.97F
DANBURY        MOSUNNY   64  42  44 E8        29.97F
WTRBRY/OXFORD  MOSUNNY   61  43  51 NE9       29.98S
BRIDGEPORT     SUNNY     53  45  74 SE8       30.00F
MERIDEN        SUNNY     65  40  39 VRB5      29.97F
NEW HAVEN      SUNNY     50  43  77 S7        30.00F
CHESTER        FAIR      61  37  41 N5        29.98F
GROTON         SUNNY     47  40  76 S12       30.01R
WILLIMANTIC    SUNNY     65  39  38 CALM      29.97F

 IN RI

CITY           SKY/WX    TMP DP  RH WIND       PRES   REMARKS
PROVIDENCE     MOSUNNY   58  40  51 CALM      30.00F
BLOCK ISLAND   PTSUNNY   45  39  81 E8        30.02F
WESTERLY       SUNNY     49  41  74 SE12      30.01S

 IN MA

CITY           SKY/WX    TMP DP  RH WIND       PRES   REMARKS
BOSTON         MOSUNNY   44  40  85 SE9       30.02F
WORCESTER      SUNNY     59  38  45 E9        29.98F
WESTFIELD      SUNNY     68  41  37 VRB5      29.96F
PROVINCETOWN   CLOUDY    43  39  87 NE8       30.04S
NANTUCKET      MOSUNNY   49  38  65 NE14      30.00S
$$

ANZ330-335-338-340-345-350-353-355-021700-
COASTAL MARINE OBSERVATIONS


STATION/POSITION TIME  SKY/WX   TEMP    WIND        PRES    VSBY  WAVE
                                AIR SEA DIR/SP/G                  HT/PER
                 (UTC)          (F)     (DEG/KT/KT) (MB)    (MI)  (FT/S)
NY HARB ENTRANCE 1550            48 51   CALM  /  2 1015.9          4/ 7
4S FIRE IS       1503               47                N/A           4/ 7
20S FIRE ISLAND  1550            44 46   90/  8/ 10 1016.6          4/ 7
GREAT SOUTH BAY  1515            48 57  170/  8/ 10   N/A
23SW MTP         1550            42 45   50/ 10/ 14 1016.5          4/ 7
HUDSON CANYON    NOT AVBL
EXECUTION ROCKS  NOT AVBL
WESTERN LI SOUND NOT AVBL
CENTRAL LI SOUND NOT AVBL
EASTERN LI SOUND 1500            43     130/ 10/ 12   N/A
ROBBINS REEF     1512            49     170/ 12/ 12 1014.6
$$


>>>>>>>>>>>>>>>>>>>>>>>>>>>> KEY <<<<<<<<<<<<<<<<<<<<<<<<<<<
>                                                          <
>     SKY/WX - SKY CONDITION/PRESENT WEATHER               <
>     TMP    - TEMPERATURE IN FAHRENHEIT                   <
>     DP     - DEWPOINT IN FAHRENHEIT                      <
>     RH     - RELATIVE HUMIDITY IN PERCENT                <
>     WIND   - DIRECTION AND SPEED IN MPH                  <
>     PRES   - MEAN SEA LEVEL PRESSURE IN INCHES OF HG     <
>     WCI    - WIND CHILL INDEX                            <
>     VSB    - VISIBILITY IN MILES                         <
>     HX     - HEAT INDEX                                  <
>     TC     - TEMPERATURE IN CELSIUS                      <
>     VRB    - VARIABLE WIND DIRECTION                     <
>                                                          <
>>>>>>>>>>>>>>>>>>>>>>>>>>>> KEY <<<<<<<<<<<<<<<<<<<<<<<<<<<




USA.gov is the U.S. government's official web portal to all federal, state and local government web resources and services.